Find Starlink 5226

NORAD ID: 54056 Int'l Des: 2022-136 Owner: SPXS Country: US Constellation: starlink operational
LEOCIRCULAR

实时位置

正在加载3D地球...

关于 Starlink 5226

正在加载描述...

即将过境

Passes for default location (London). Set your location on the main map for personalized predictions.

高度历史

Loading altitude history...

两行轨道根数

1 54056U 22136F 26121.24256521 .00000957 00000-0 78215-4 0 9991
2 54056 53.2165 107.7890 0001372 81.1755 278.9392 15.08836890194783
Epoch: May 1, 2026 • Age: 13 hours

当前状态

高度 540.7 km
速度 7.59 km/s
星下点 -0.87°S, 32.96°W
发射日期 Oct 20, 2022
运行时间 3.5 years
类型 internet

技术详情

分类 Payload
质量 305.00 kg
干质量 290.00 kg
总质量 305.00 kg
长度 0.20 m
直径 2.80 m
跨度 9.00 m
形状 Box + pan
制造商 SPXS
平台类型 Starlink
阶段状态 In Orbit
所有者/国家 SPXS/US

Most Searched